Weather Roundup
Issued by NWS

Home | Current Version | Previous Version | Graphics & Text | Print | Product List | Glossary Off
Versions: 1 2 3 4 5 6 7 8 9 10 11 12 13 14 15 16 17 18 19 20 21 22 23 24 25 26 27 28 29 30 31 32 33 34 35 36 37 38 39 40 41 42 43 44 45 46 47 48 49 50

000
NZUS93 KARX 262310
HRRWXR

CURRENT HOURLY OBSERVATIONS ACROSS
MUCH OF THE UPPER MISSISSIPPI VALLEY
NATIONAL WEATHER SERVICE LA CROSSE WI
600 PM CDT FRI AUG 26 2016


...SOUTHEAST MINNESOTA...


CITY           SKY/WX    TMP DP  RH WIND       PRES   REMARKS
ROCHESTER      MOSUNNY   70  57  63 SE3       30.16S
ROCHESTER/MAYO FAIR      70  52  52 CALM      30.15F
WINONA         CLOUDY    70  55  60 CALM      30.14S
AUSTIN         CLOUDY    70  55  60 CALM      30.15F
ALBERT LEA     MOSUNNY   70  57  64 CALM      30.15F
DODGE CENTER   CLOUDY    72  55  56 CALM      30.16S
PRESTON        MOSUNNY   67  56  66 CALM      30.16S
OWATONNA       CLOUDY    70  55  60 CALM      30.15S
FARIBAULT      CLOUDY    70  55  60 CALM      30.15F
$$

...ELSEWHERE IN MINNESOTA...


CITY           SKY/WX    TMP DP  RH WIND       PRES   REMARKS
MINNEAPOLIS    CLOUDY    71  53  52 VRB5      30.14F
INTNL FALLS    SUNNY     73  50  44 SW5       30.05S
DULUTH         CLOUDY    70  53  54 S9        30.12S
RED WING       CLOUDY    72  52  49 CALM      30.14S
REDWOOD FALLS  MOSUNNY   71  55  56 S7        30.13F
MANKATO        MOSUNNY   70  55  60 SE3       30.14F
WORTHINGTON    CLOUDY    68  59  73 MISG      30.14S
FAIRMONT       CLOUDY    69  58  67 SE7       30.14F
$$

...SOUTHWEST WISCONSIN...


CITY           SKY/WX    TMP DP  RH WIND       PRES   REMARKS
LA CROSSE      CLOUDY    74  58  57 N3        30.13F
PRAIRIE DU CHI CLOUDY    66  61  81 CALM      30.13F
BOSCOBEL       CLOUDY    70  62  76 CALM      30.14F
LONE ROCK      CLOUDY    70  60  70 N3        30.15S
PLATTEVILLE    MOSUNNY   70  64  83 N5        30.15S
FORT MC COY    CLOUDY    70  58  64 CALM      30.15S
CAMP DOUGLAS   PTSUNNY   70  57  64 S3        30.15R
MAUSTON-NEW LI CLOUDY    70  58  66 CALM      30.15S
VIROQUA        MOCLDY    69  59  69 CALM      30.16S
WIS DELLS      CLOUDY    69  56  65 CALM      30.15S
$$

...ELSEWHERE IN WISCONSIN...


CITY           SKY/WX    TMP DP  RH WIND       PRES   REMARKS
MILWAUKEE      CLOUDY    71  56  58 SE8       30.15R
MADISON        CLOUDY    72  60  66 VRB5      30.13S
GREEN BAY      PTSUNNY   70  60  70 SW3       30.14S
EAU CLAIRE     CLOUDY    71  53  52 W5        30.14F
BLACK RVR FLS  FAIR      72  55  55 CALM      30.15S
MEDFORD        PTSUNNY   66  53  61 W5        30.16S
WAUSAU         MOSUNNY   69  52  54 W5        30.14S
WIS RAPIDS     CLOUDY    70  55  59 N5        30.16F
MARSHFIELD     CLOUDY    69  53  56 W3        30.15F
RICE LAKE      CLOUDY    68  54  61 S3        30.17S
$$

...NORTHEAST IOWA...


CITY           SKY/WX    TMP DP  RH WIND       PRES   REMARKS
WATERLOO       LGT RAIN  66  61  84 N6        30.13R
DUBUQUE        CLOUDY    70  61  73 NE7       30.13F
DECORAH        CLOUDY    68  59  73 CALM      30.13F
MASON CITY     LGT RAIN  68  62  81 N5        30.15F
CHARLES CITY   CLOUDY    68  61  77 CALM      30.15S
OELWEIN        CLOUDY    66  63  88 NW5       30.16R
$$

...ELSEWHERE IN IOWA...


CITY           SKY/WX    TMP DP  RH WIND       PRES   REMARKS
DES MOINES     CLOUDY    71  64  78 NE12      30.06F
IOWA CITY      CLOUDY    75  63  66 NE8       30.10F
FORT DODGE     PTSUNNY   66  61  82 E10       30.12F
MARSHALLTOWN   CLOUDY    67  63  87 NE8       30.11F
CEDAR RAPIDS   CLOUDY    73  65  75 NE9       30.10S
$$

...NORTHERN ILLINOIS...


CITY           SKY/WX    TMP DP  RH WIND       PRES   REMARKS
CHICAGO-OHARE  PTSUNNY   76  60  57 E9        30.11F
CHICAGO-MIDWAY CLOUDY    76  62  62 E8        30.12S
MOLINE         CLOUDY    78  64  61 E8        30.07F
ROCKFORD       CLOUDY    76  60  57 E5        30.12F
PEORIA         CLOUDY    78  71  79 E10       30.07F
$$

NOTE: "FAIR" INDICATES FEW OR NO CLOUDS BELOW 12,000 FEET WITH NO
SIGNIFICANT WEATHER AND/OR OBSTRUCTIONS TO VISIBILITY. WIND
SPEEDS ARE IN MILES-PER-HOUR.




USA.gov is the U.S. government's official web portal to all federal, state and local government web resources and services.